Canby, MN

1:14 AM CDT on March 24, 2017 (GMT -0500)
Canby

Weather History for KCNB - November, 2013

Change the Weather History Date:

Tuesday, November 12, 2013

  Actual Average (KMML) Record (KMML)
Temperature  
Mean Temperature 20 °F -  
Max Temperature 33 °F 41 °F 69 °F (2001)
Min Temperature 7 °F 22 °F -5 °F (1966)
Degree Days  
Heating Degree Days 45    
Moisture  
Dew Point 9 °F    
Average Humidity 62    
Maximum Humidity 87    
Minimum Humidity 30    
Precipitation  
Precipitation 0.00 in - - ()
Sea Level Pressure  
Sea Level Pressure 30.63 in    
Wind  
Wind Speed 6 mph (SW)    
Max Wind Speed 25 mph    
Max Gust Speed 36 mph    
Visibility 10 miles    
Events      
Averages and records for this station are not official NWS values.
T = Trace of Precipitation, MM = Missing Value Source: NWS Daily Summary

Daily Weather History Graph

Daily Weather History Graph

Search for Another Location

Airport or City:

Trip Planner

Search our weather history database for the weather conditions in past years. The results will help you decide how hot, cold, wet, or windy it might be!

Date:

Astronomy

Nov. 12, 2013 Rise Set
Actual Time 7:18 AM CST 4:59 PM CST
Civil Twilight 6:46 AM CST 5:31 PM CST
Nautical Twilight 6:11 AM CST 6:06 PM CST
Astronomical Twilight 5:37 AM CST 6:40 PM CST
Moon 2:25 PM CST (11/12) 1:57 AM CST (11/12)
Length of Visible Light 10h 44m
Length of Day
9h 41m
Waxing Gibbous, 76% of the Moon is Illuminated
Nov 12
Waxing Gibbous
Nov 17
Full
Nov 25
Last Quarter
Dec 2
New
Dec 9
First Quarter

Hourly Weather History & Observations

Time (CST) Temp. Windchill Dew Point Humidity Pressure Visibility Wind Dir Wind Speed Gust Speed Precip Events Conditions
12:14 AM 9.5 °F 3.0 °F 5.9 °F 85% 30.79 in 10.0 mi West 3.5 mph - N/A   Clear
12:34 AM 9.1 °F 0.8 °F 5.5 °F 85% 30.79 in 10.0 mi West 4.6 mph - N/A   Clear
12:54 AM 8.8 °F -1.1 °F 5.4 °F 86% 30.79 in 10.0 mi West 5.8 mph - N/A   Clear
1:14 AM 8.6 °F 2.0 °F 5.4 °F 87% 30.77 in 10.0 mi West 3.5 mph - N/A   Clear
1:34 AM 8.4 °F -0.1 °F 5.0 °F 86% 30.76 in 10.0 mi WSW 4.6 mph - N/A   Clear
1:55 AM 8.8 °F -1.1 °F 5.2 °F 85% 30.77 in 10.0 mi West 5.8 mph - N/A   Clear
2:14 AM 9.0 °F 2.4 °F 5.4 °F 85% 30.76 in 10.0 mi WSW 3.5 mph - N/A   Clear
2:34 AM 7.7 °F 1.0 °F 4.5 °F 87% 30.77 in 10.0 mi West 3.5 mph - N/A   Clear
2:54 AM 7.2 °F 0.3 °F 3.9 °F 87% 30.77 in 10.0 mi West 3.5 mph - N/A   Clear
3:15 AM 7.3 °F - 4.1 °F 87% 30.78 in 10.0 mi Calm Calm - N/A   Clear
3:34 AM 7.5 °F - 4.1 °F 86% 30.77 in 10.0 mi Calm Calm - N/A   Clear
3:54 AM 8.1 °F - 4.6 °F 86% 30.78 in 10.0 mi Calm Calm - N/A   Clear
4:14 AM 8.4 °F - 4.8 °F 85% 30.77 in 10.0 mi Calm Calm - N/A   Clear
4:35 AM 8.4 °F 1.8 °F 4.5 °F 84% 30.78 in 10.0 mi WSW 3.5 mph - N/A   Clear
4:54 AM 8.2 °F - 4.6 °F 85% 30.79 in 10.0 mi Calm Calm - N/A   Clear
5:14 AM 8.8 °F 0.4 °F 5.0 °F 85% 30.78 in 10.0 mi SW 4.6 mph - N/A   Clear
5:34 AM 8.8 °F 0.4 °F 5.0 °F 85% 30.78 in 10.0 mi WSW 4.6 mph - N/A   Clear
5:55 AM 9.7 °F -0.1 °F 6.3 °F 86% 30.78 in 10.0 mi WSW 5.8 mph - N/A   Clear
6:14 AM 10.2 °F 0.6 °F 6.4 °F 85% 30.77 in 10.0 mi WSW 5.8 mph - N/A   Clear
6:34 AM 10.4 °F -0.4 °F 6.3 °F 83% 30.77 in 10.0 mi WSW 6.9 mph - N/A   Clear
6:54 AM 10.4 °F -1.5 °F 5.9 °F 82% 30.76 in 10.0 mi WSW 8.1 mph - N/A   Clear
7:14 AM 10.8 °F 1.2 °F 6.4 °F 83% 30.76 in 10.0 mi WSW 5.8 mph - N/A   Clear
7:34 AM 11.3 °F 0.7 °F 7.3 °F 84% 30.76 in 10.0 mi WSW 6.9 mph - N/A   Clear
7:54 AM 12.2 °F 2.9 °F 7.7 °F 82% 30.76 in 10.0 mi WSW 5.8 mph - N/A   Clear
8:14 AM 14.0 °F 5.1 °F 8.6 °F 79% 30.76 in 10.0 mi SW 5.8 mph - N/A   Clear
8:35 AM 16.2 °F 6.5 °F 10.8 °F 79% 30.77 in 10.0 mi SW 6.9 mph - N/A   Clear
8:54 AM 17.6 °F 6.4 °F 9.7 °F 71% 30.76 in 10.0 mi WSW 9.2 mph - N/A   Clear
9:14 AM 18.5 °F 10.4 °F 10.2 °F 70% 30.76 in 10.0 mi SW 5.8 mph - N/A   Clear
9:34 AM 19.9 °F 8.6 °F 10.9 °F 68% 30.76 in 10.0 mi WSW 10.4 mph - N/A   Clear
9:54 AM 21.9 °F 11.7 °F 10.2 °F 61% 30.75 in 10.0 mi WSW 9.2 mph - N/A   Clear
10:15 AM 23.9 °F 15.0 °F 9.5 °F 54% 30.73 in 10.0 mi SW 8.1 mph - N/A   Clear
10:35 AM 25.0 °F 14.2 °F 7.7 °F 48% 30.72 in 10.0 mi WSW 11.5 mph - N/A   Clear
10:54 AM 26.6 °F 16.2 °F 7.2 °F 44% 30.72 in 10.0 mi SW 11.5 mph - N/A   Clear
11:15 AM 27.3 °F 16.6 °F 5.0 °F 39% 30.71 in 10.0 mi WSW 12.7 mph - N/A   Clear
11:34 AM 27.7 °F 18.2 °F 6.4 °F 41% 30.71 in 10.0 mi SW 10.4 mph 17.3 mph N/A   Clear
11:54 AM 27.9 °F 19.1 °F 8.2 °F 44% 30.69 in 10.0 mi SW 9.2 mph - N/A   Clear
12:15 PM 29.1 °F 20.6 °F 7.7 °F 41% 30.67 in 10.0 mi SW 9.2 mph - N/A   Clear
12:34 PM 30.2 °F 23.4 °F 7.3 °F 38% 30.66 in 10.0 mi SW 6.9 mph - N/A   Clear
12:54 PM 31.3 °F 22.7 °F 5.9 °F 34% 30.64 in 10.0 mi SW 10.4 mph - N/A   Clear
1:15 PM 32.0 °F 23.6 °F 5.7 °F 33% 30.62 in 10.0 mi SSW 10.4 mph - N/A   Clear
1:34 PM 32.5 °F 24.8 °F 4.5 °F 31% 30.61 in 10.0 mi SSW 9.2 mph - N/A   Clear
1:54 PM 33.1 °F 24.4 °F 4.3 °F 30% 30.60 in 10.0 mi SW 11.5 mph - N/A   Clear
2:14 PM 33.1 °F 24.4 °F 5.7 °F 32% 30.59 in 10.0 mi SSW 11.5 mph 16.1 mph N/A   Clear
2:34 PM 33.6 °F 26.2 °F 6.4 °F 32% 30.58 in 10.0 mi SSW 9.2 mph - N/A   Clear
2:54 PM 33.8 °F 26.4 °F 7.0 °F 33% 30.57 in 10.0 mi SSW 9.2 mph - N/A   Clear
3:14 PM 33.4 °F 26.6 °F 7.9 °F 34% 30.57 in 10.0 mi SSW 8.1 mph - N/A   Clear
3:35 PM 33.1 °F 24.9 °F 9.5 °F 37% 30.56 in 10.0 mi SSW 10.4 mph - N/A   Clear
3:54 PM 32.9 °F 25.9 °F 10.6 °F 40% 30.57 in 10.0 mi SW 8.1 mph - N/A   Clear
4:14 PM 32.7 °F 27.3 °F 12.2 °F 43% 30.57 in 10.0 mi SSW 5.8 mph - N/A   Clear
4:34 PM 32.0 °F 26.4 °F 12.2 °F 44% 30.56 in 10.0 mi SSW 5.8 mph - N/A   Clear
4:54 PM 30.9 °F 25.2 °F 13.3 °F 48% 30.56 in 10.0 mi South 5.8 mph - N/A   Clear
5:14 PM 29.8 °F 24.9 °F 13.6 °F 51% 30.55 in 10.0 mi South 4.6 mph - N/A   Clear
5:34 PM 28.9 °F 21.9 °F 14.4 °F 55% 30.54 in 10.0 mi South 6.9 mph - N/A   Clear
5:54 PM 28.0 °F - 14.7 °F 57% 30.54 in 10.0 mi Calm Calm - N/A   Clear
6:14 PM 24.6 °F 17.7 °F 14.9 °F 67% 30.52 in 10.0 mi SSE 5.8 mph - N/A   Clear
6:34 PM 22.5 °F 15.1 °F 14.5 °F 72% 30.51 in 10.0 mi SSE 5.8 mph - N/A   Clear
6:54 PM 24.8 °F 19.1 °F 15.6 °F 68% 30.50 in 10.0 mi SSE 4.6 mph - N/A   Clear
7:15 PM 24.4 °F 18.6 °F 15.6 °F 69% 30.48 in 10.0 mi South 4.6 mph - N/A   Clear
7:34 PM 23.4 °F 16.2 °F 15.3 °F 71% 30.47 in 10.0 mi South 5.8 mph - N/A   Clear
7:55 PM 29.3 °F 18.6 °F 13.5 °F 52% 30.45 in 10.0 mi SSW 13.8 mph 20.7 mph N/A   Clear
8:14 PM 30.2 °F 20.8 °F 12.9 °F 49% 30.44 in 10.0 mi South 11.5 mph 16.1 mph N/A   Clear
8:34 PM 30.2 °F 21.9 °F 12.6 °F 48% 30.42 in 10.0 mi South 9.2 mph - N/A   Clear
8:55 PM 30.6 °F 19.8 °F 12.2 °F 47% 30.41 in 10.0 mi SSW 15.0 mph 21.9 mph N/A   Clear
9:14 PM 30.6 °F 19.4 °F 12.2 °F 47% 30.41 in 10.0 mi SSW 16.1 mph 25.3 mph N/A   Clear
9:35 PM 30.2 °F 22.6 °F 12.6 °F 48% 30.40 in 10.0 mi SSW 8.1 mph 23.0 mph N/A   Clear
9:54 PM 30.7 °F 22.0 °F 13.1 °F 48% 30.39 in 10.0 mi SSW 10.4 mph - N/A   Clear
10:14 PM 30.9 °F 22.2 °F 13.5 °F 48% 30.37 in 10.0 mi SW 10.4 mph 20.7 mph N/A   Clear
10:34 PM 30.2 °F 17.1 °F 14.2 °F 51% 30.36 in 10.0 mi SW 21.9 mph 28.8 mph N/A   Clear
10:55 PM 30.2 °F 17.8 °F 14.7 °F 53% 30.35 in 10.0 mi SSW 19.6 mph 32.2 mph N/A   Clear
11:14 PM 30.9 °F 18.4 °F 15.6 °F 53% 30.33 in 10.0 mi SW 20.7 mph 27.6 mph N/A   Clear
11:34 PM 30.9 °F 17.2 °F 16.5 °F 55% 30.32 in 10.0 mi SW 25.3 mph 34.5 mph N/A   Clear
11:55 PM 30.7 °F 17.5 °F 17.1 °F 57% 30.30 in 10.0 mi SW 23.0 mph 35.7 mph N/A   Clear